This is the latest recevied weather packets stored in our database for station/object PA3CPS. If no packets are shown the sender has not sent any weather packets the latest 10 day(s).
| Time | Temp. | Humidity | Pressure | Rain* | Wind** | Luminosity | Snow |
|---|---|---|---|---|---|---|---|
| 1777449784 | 12.78° C | 52% | 1027.8 hPa | 0 mm | - | 563 W/m² | - |
| 1777449484 | 12.22° C | 53% | 1027.8 hPa | 0 mm | - | 550 W/m² | - |
| 1777449186 | 12.22° C | 53% | 1027.7 hPa | 0 mm | - | 552 W/m² | - |
| 1777448884 | 12.22° C | 55% | 1027.7 hPa | 0 mm | - | 526 W/m² | - |
| 1777448583 | 11.67° C | 55% | 1027.6 hPa | 0 mm | - | 501 W/m² | - |
| 1777448283 | 11.67° C | 55% | 1027.6 hPa | 0 mm | - | 459 W/m² | - |
| 1777447983 | 11.11° C | 57% | 1027.5 hPa | 0 mm | - | 494 W/m² | - |
| 1777447681 | 10.56° C | 56% | 1027.5 hPa | 0 mm | - | 476 W/m² | - |
| 1777447377 | 10.56° C | 57% | 1027.4 hPa | 0 mm | - | 455 W/m² | - |
| 1777447076 | 10.56° C | 57% | 1027.5 hPa | 0 mm | - | 397 W/m² | - |
| 1777446773 | 10.56° C | 59% | 1027.6 hPa | 0 mm | - | 396 W/m² | - |
| 1777446474 | 10° C | 58% | 1027.5 hPa | 0 mm | - | 429 W/m² | - |
| 1777446170 | 10° C | 59% | 1027.5 hPa | 0 mm | - | 378 W/m² | - |
| 1777445866 | 9.44° C | 60% | 1027.4 hPa | 0 mm | - | 396 W/m² | - |
| 1777445566 | 8.89° C | 62% | 1027.3 hPa | 0 mm | - | 320 W/m² | - |
| 1777445265 | 8.33° C | 63% | 1027.4 hPa | 0 mm | - | 195 W/m² | - |
| 1777444964 | 8.33° C | 62% | 1027.3 hPa | 0 mm | - | 346 W/m² | - |
| 1777444663 | 7.78° C | 64% | 1027.3 hPa | 0 mm | - | 329 W/m² | - |
| 1777444361 | 7.78° C | 64% | 1027.2 hPa | 0 mm | - | 148 W/m² | - |
| 1777444061 | 7.22° C | 64% | 1027.3 hPa | 0 mm | - | 56 W/m² | - |
| 1777443755 | 7.22° C | 65% | 1027.2 hPa | 0 mm | - | 158 W/m² | - |
| 1777443454 | 7.22° C | 66% | 1027.3 hPa | 0 mm | - | 158 W/m² | - |
| 1777443152 | 6.67° C | 66% | 1027.2 hPa | 0 mm | - | 255 W/m² | - |
| 1777442851 | 6.67° C | 66% | 1027.2 hPa | 0 mm | - | 213 W/m² | - |
| 1777442548 | 6.67° C | 67% | 1027.1 hPa | 0 mm | - | 181 W/m² | - |
* Rain latest hour (hover to see other rain measurements)
** Current wind speed in m/s (hover to see current wind gust speed)